Temp
16 17 18 19 19 19 20 21 23 23 23 24 24 24 25 25 27 26 33 33 32 32 30 30 30 33 33 36 35 36 37 36 35 35 33 32 32 31 31 29 28 28 27 21 20
15 16 17 18 19 19 20 21 22 23 23 24 24 24 25 26 24 31 33 32 32 32 32 34 36 35 38 37 37 38 38 35 36 35 33 32 32 30 30 29 26 26 23 20 20
13 14 16 17 18 19 20 21 22 23 24 24 24 25 25 26 31 36 32 32 32 32 33 35 35 37 38 38 37 37 37 36 35 35 34 32 31 31 31 29 27 25 24 21 21
12 13 14 16 18 18 19 20 22 23 24 24 24 25 25 24 34 33 32 32 31 31 33 35 37 38 38 37 37 37 36 36 35 34 34 33 32 31 31 31 29 25 26 22 22
11 12 13 15 16 18 19 20 22 22 23 24 24 25 25 31 34 31 31 32 31 31 34 37 37 38 38 37 37 37 36 35 35 34 33 33 32 30 29 29 27 26 26 24 23
11 11 13 14 16 17 19 21 22 23 23 24 24 24 27 31 31 30 30 30 32 33 35 36 38 38 37 37 37 37 36 35 35 34 34 33 31 32 29 28 26 25 24 24 24
10 11 12 15 16 17 19 21 22 23 24 24 24 23 28 32 31 30 30 32 32 34 37 36 37 38 38 36 37 36 36 36 35 35 33 35 33 31 29 28 25 25 25 25 25
10 10 11 14 16 17 19 20 22 23 23 22 23 22 30 30 30 30 31 32 32 33 34 35 36 38 38 37 36 37 38 37 35 35 34 34 33 31 30 30 28 27 26 26 26
10 10 11 13 15 17 20 20 21 21 21 22 22 26 32 28 30 32 32 34 34 34 34 34 36 38 37 37 37 37 38 37 35 35 35 35 34 32 31 31 30 29 28 28 28
10 10 11 12 15 17 20 20 19 20 20 19 22 27 31 33 33 32 32 34 35 35 35 36 38 38 38 39 38 37 37 37 37 36 35 35 35 33 32 32 32 32 31 30 30
10 10 11 12 14 17 19 21 25 25 24 31 32 33 32 32 30 32 32 34 36 36 36 36 37 37 38 39 39 39 38 37 38 37 36 37 37 35 33 33 33 32 32 31 31
9 10 10 12 15 16 17 25 20 18 26 30 30 30 31 30 32 34 33 35 35 35 37 35 36 39 39 38 38 38 38 38 37 37 36 37 37 37 35 34 35 34 33 32 32
9 9 10 12 15 16 17 20 17 19 26 31 31 31 31 31 33 34 34 36 35 36 36 36 38 39 37 37 37 38 38 38 37 37 37 36 36 37 36 36 36 35 35 34 33
9 9 9 11 16 15 20 17 18 18 28 32 30 31 32 33 32 35 34 36 36 36 36 37 37 37 37 37 38 38 38 38 37 37 38 37 37 36 37 36 36 36 35 35 34
9 9 9 9 12 17 18 17 18 20 29 33 31 31 34 33 35 34 34 36 35 36 37 36 36 36 36 38 38 38 38 38 37 37 37 36 37 36 38 36 37 37 37 36 35
9 9 9 12 12 14 15 17 19 26 28 31 31 30 31 34 34 35 34 36 37 36 35 38 37 38 38 39 38 38 37 37 38 38 36 38 38 38 38 38 38 38 38 38 37
9 9 8 9 16 15 15 20 25 27 31 32 31 32 32 33 34 33 33 33 33 33 34 35 35 37 37 37 37 38 38 36 36 36 37 37 37 40 41 40 40 39 39 39 38
8 9 10 11 13 13 16 22 25 30 31 32 33 33 32 34 34 34 34 33 35 36 36 35 34 36 37 37 37 37 38 37 34 37 38 36 37 39 41 40 40 40 41 40 39
8 12 12 13 12 13 19 22 26 30 32 32 32 32 32 34 35 34 34 35 35 36 36 36 36 37 38 38 39 37 37 40 39 38 39 39 39 40 41 41 40 39 40 40 40
9 12 13 13 12 14 19 22 28 31 30 33 32 33 32 33 33 34 34 35 36 36 38 37 36 37 37 38 38 39 39 37 38 36 36 38 38 39 40 41 39 38 39 39 39
10 14 13 12 12 17 20 23 26 29 28 30 32 32 34 33 33 34 35 36 37 36 36 37 36 36 37 36 37 36 38 38 40 39 38 37 38 41 40 40 39 39 38 38 38
12 14 13 12 16 20 21 23 23 27 28 28 29 32 33 34 34 34 35 35 37 37 34 37 37 36 36 38 39 39 38 39 38 36 38 38 39 41 41 40 39 40 38 39 38
13 14 14 13 17 20 21 22 23 25 27 28 29 31 32 32 32 34 35 36 36 36 35 36 35 35 36 36 36 37 39 40 40 40 38 37 39 41 41 39 39 39 39 37 37
12 14 16 16 17 17 21 21 22 24 26 28 29 29 30 31 32 33 34 36 35 36 31 35 36 36 36 36 37 36 38 39 39 38 38 38 39 40 40 40 39 38 38 37 35
13 14 12 13 16 16 17 20 22 23 25 26 27 28 30 30 31 32 34 34 34 31 33 35 34 35 37 38 39 38 38 38 38 39 38 39 39 40 40 40 41 39 36 35 34
12 13 14 14 14 15 14 18 20 23 25 25 25 29 29 29 31 32 34 33 32 33 34 35 33 35 35 36 37 37 38 38 38 39 39 39 39 41 41 41 39 37 35 34 34
11 11 12 13 15 16 18 18 19 18 20 22 25 27 27 29 29 29 31 31 31 32 32 33 34 33 33 35 36 35 37 37 38 39 39 38 39 40 40 39 39 38 36 35 34
Height
813 810 808 806 803 800 798 795 792 790 788 786 784 783 781 779 778 775 771 770 768 768 769 772 773 770 769 761 761 756 764 781 781 778 789 783 789 790 790 800 803 804 808 824 832
815 811 809 806 803 800 797 795 792 790 787 786 784 783 781 778 777 773 770 768 768 768 771 769 765 765 759 757 757 756 764 780 768 770 784 784 785 792 796 801 812 814 821 829 834
816 813 810 807 803 800 797 794 791 789 786 785 784 782 781 778 775 761 766 766 767 768 770 768 765 761 758 756 759 761 774 767 771 771 776 785 791 788 794 804 810 817 822 831 835
816 813 811 807 804 801 797 794 791 788 786 783 783 781 780 780 784 764 765 764 766 767 770 766 761 759 762 766 760 769 765 767 774 775 779 787 787 795 792 796 802 816 820 830 835
816 813 810 806 803 800 796 793 790 788 785 782 781 781 780 775 766 765 764 763 765 767 767 763 761 758 765 762 762 768 771 770 773 779 782 784 792 799 804 804 812 818 822 831 835
816 812 808 805 801 798 794 790 788 786 783 781 780 781 780 780 764 764 764 765 766 766 763 763 759 757 761 765 765 764 768 773 775 783 783 789 796 792 808 810 818 822 826 830 833
816 811 807 803 800 796 791 788 784 782 780 779 779 779 777 766 763 764 764 764 765 764 761 762 761 760 757 769 761 764 778 777 779 781 789 778 797 804 805 810 821 824 826 828 831
815 811 806 801 797 793 789 785 781 778 777 778 778 780 768 761 761 762 763 763 763 764 764 763 763 757 757 758 766 770 767 784 783 781 784 785 809 804 802 805 814 820 823 825 827
815 810 805 799 795 790 786 782 779 777 777 777 779 776 763 757 758 756 760 759 762 763 764 763 760 757 761 768 777 772 783 785 791 778 783 785 798 798 797 800 807 812 816 819 822
814 809 804 798 793 788 783 780 778 777 777 778 778 777 756 750 751 753 756 758 758 759 763 762 758 764 761 765 788 783 782 780 786 782 783 786 790 793 795 797 801 803 807 810 813
813 809 803 796 791 786 781 780 778 774 772 753 749 747 748 749 751 750 752 755 754 757 767 760 770 775 762 755 757 764 774 782 773 773 783 782 782 788 790 791 796 799 803 805 807
813 808 802 795 789 785 783 777 783 787 768 751 751 750 749 750 749 745 748 752 755 765 755 772 774 750 746 756 764 767 777 780 774 771 781 778 784 774 781 786 784 791 796 800 802
812 807 801 794 788 787 786 785 786 784 770 742 739 742 743 748 745 740 742 741 751 758 758 764 754 745 759 765 770 767 774 777 783 778 773 782 787 779 775 776 778 780 785 791 794
811 806 801 793 791 790 784 786 785 784 766 737 740 731 734 736 744 732 737 737 745 754 754 754 745 757 762 766 763 774 761 770 777 787 789 774 794 781 772 778 777 776 779 784 788
809 806 802 801 797 790 788 786 784 783 775 715 725 721 716 729 719 732 733 735 748 748 749 756 756 764 766 760 755 767 757 768 774 780 782 784 787 783 767 779 773 769 769 774 780
807 804 801 799 796 790 788 786 784 776 765 726 718 725 727 721 722 723 732 730 728 744 751 741 738 745 746 746 751 754 768 771 771 772 802 771 780 776 774 766 761 759 761 764 770
804 801 800 799 790 788 788 782 774 757 716 720 720 715 718 721 722 730 735 742 749 768 766 754 754 742 743 756 755 759 772 799 806 803 795 770 782 758 743 746 745 749 752 755 761
800 796 792 790 788 788 787 774 757 716 715 699 702 709 719 709 715 722 730 741 731 731 746 764 776 749 739 747 763 764 761 782 818 798 783 779 790 767 736 734 733 737 737 743 751
796 790 785 782 782 785 779 761 728 709 701 707 705 714 715 706 708 718 720 725 723 721 739 749 752 730 732 732 737 759 769 741 765 764 771 768 760 744 732 734 734 739 736 738 744
795 787 778 778 779 780 767 742 716 698 704 695 708 700 714 709 714 714 717 707 716 713 708 727 751 731 733 731 733 739 739 774 765 795 802 775 772 762 747 736 737 739 737 739 740
792 780 772 774 776 767 743 732 720 705 710 705 697 700 695 702 704 707 707 700 699 712 714 720 731 739 731 745 746 755 749 748 741 754 778 787 772 729 737 731 736 734 734 737 740
788 771 772 774 763 744 737 727 724 714 708 707 702 692 696 691 699 699 703 700 688 699 724 714 725 743 742 722 715 726 737 741 762 779 759 759 756 716 722 725 730 729 732 732 736
780 771 769 772 746 733 734 728 725 719 712 706 702 694 689 695 707 695 694 685 688 698 713 711 729 745 742 738 729 730 724 724 729 734 758 774 761 715 720 726 726 727 727 733 736
783 762 757 762 751 743 728 731 731 718 711 704 700 700 700 699 692 695 694 685 687 693 703 702 717 725 736 734 724 743 728 724 728 750 751 750 748 730 726 726 725 727 726 731 738
780 764 774 761 750 750 749 732 725 723 711 708 709 703 698 704 701 700 689 691 694 697 703 704 727 721 712 705 705 719 723 726 731 729 743 736 740 729 722 722 716 719 728 734 739
780 772 768 763 759 755 752 738 732 717 713 713 715 699 699 704 695 699 686 692 702 699 702 700 725 717 727 713 712 718 712 714 718 719 722 724 731 708 709 709 719 723 729 733 736
785 783 778 760 752 748 736 734 733 737 727 719 710 709 708 702 700 701 692 692 696 697 704 707 712 726 735 719 722 738 717 716 717 712 717 733 720 709 715 718 717 719 722 726 730
Wind_Speed
21 21 20 21 21 21 20 19 19 19 19 16 13 10 10 12 12 8 7 3 5 11 7 8 8 8 6 4 5 4 1 9 8 9 8 9 9 6 3 10 6 6 16 17 20
23 22 21 21 21 21 21 19 19 19 19 15 12 10 11 13 7 11 8 5 6 12 7 8 5 6 5 2 2 5 9 11 8 8 10 7 4 9 7 10 9 14 21 24 21
23 23 23 22 22 22 22 20 19 18 17 15 12 10 10 10 7 1 3 11 12 14 5 5 5 8 5 2 3 2 10 10 13 13 11 11 8 5 8 7 12 18 19 20 19
25 25 24 23 22 22 22 21 19 17 17 15 11 10 8 3 6 5 3 7 15 13 7 6 7 5 3 3 3 7 9 11 12 12 11 10 10 8 3 12 15 17 18 19 17
27 27 26 24 23 22 22 21 18 17 17 15 10 7 4 7 10 3 6 2 16 12 12 8 7 5 5 4 5 12 13 14 13 13 12 11 9 11 14 14 15 17 15 15 15
27 28 27 26 24 23 23 20 19 18 16 13 8 3 6 11 0 4 1 6 12 14 10 7 4 6 2 5 4 9 16 14 13 12 12 12 12 6 10 14 13 13 15 13 16
27 28 28 27 26 24 22 20 20 18 15 9 5 2 8 12 3 2 3 5 6 12 7 5 3 7 1 9 13 16 16 12 10 7 9 6 10 12 13 14 13 11 10 11 13
28 29 29 28 27 26 24 21 19 16 7 3 2 3 7 5 10 13 7 7 5 10 6 2 5 3 3 12 9 6 11 8 9 4 6 8 10 12 13 13 13 12 11 12 13
27 29 31 30 27 26 23 20 11 3 1 4 2 6 8 4 9 13 17 10 10 9 7 3 6 1 9 11 9 9 8 4 7 7 3 6 10 13 13 11 11 12 12 11 12
27 29 31 31 28 26 23 13 2 1 2 2 4 6 8 7 5 7 17 13 13 11 9 8 7 10 10 10 10 9 6 7 5 9 8 5 7 13 14 12 10 11 11 12 12
27 29 31 32 29 22 18 4 5 6 10 13 2 9 3 3 6 10 17 17 13 15 13 14 11 14 15 10 8 2 3 2 4 7 7 7 4 12 14 13 12 11 11 11 11
26 28 31 32 27 13 6 4 6 6 9 17 18 14 10 1 6 11 20 16 16 18 18 9 17 16 7 5 7 7 6 4 4 4 9 6 8 10 14 13 12 13 13 13 13
25 27 30 33 16 6 5 4 7 5 7 9 16 18 17 15 11 17 20 21 20 22 20 17 18 10 13 11 11 9 7 3 6 2 11 4 11 13 13 12 12 12 12 14 15
24 26 29 34 2 14 2 1 11 3 6 10 11 11 15 14 14 16 24 20 15 24 21 21 11 14 15 16 13 12 8 5 4 7 3 9 6 12 15 15 16 16 15 15 16
24 24 25 20 15 7 3 10 9 4 6 10 13 8 14 23 12 20 26 19 20 17 18 19 13 17 18 18 15 11 3 5 5 10 6 9 8 8 14 14 18 18 18 17 17
22 24 24 11 13 13 13 14 4 7 13 9 10 15 18 24 17 23 22 19 12 15 16 18 9 19 20 11 12 8 7 5 7 7 9 10 11 13 10 17 18 20 19 18 19
23 25 24 18 6 3 13 7 7 13 6 13 12 20 22 21 22 20 27 25 16 20 17 13 15 12 10 14 12 16 14 9 8 7 5 5 8 2 7 10 8 19 22 21 20
25 27 21 18 15 10 7 8 16 15 20 1 11 17 21 24 27 23 29 26 26 21 18 19 20 18 14 20 14 19 19 11 12 11 7 5 8 6 3 3 7 12 19 23 21
26 17 17 11 8 13 8 16 15 14 24 10 13 18 19 19 17 21 26 29 28 24 16 20 22 23 17 19 19 18 21 21 14 2 5 10 7 8 12 10 9 13 17 21 22
17 19 18 9 8 14 10 25 17 14 4 19 17 18 21 25 18 26 24 28 30 25 22 12 18 17 19 17 19 14 20 12 10 11 13 8 9 6 9 5 3 11 17 17 17
12 5 5 5 12 9 16 24 27 10 6 11 22 12 16 20 24 27 24 14 30 28 23 11 12 15 20 18 21 10 13 14 14 14 11 7 10 9 6 1 3 10 15 17 17
7 5 4 6 9 10 16 22 18 22 12 9 7 19 12 17 24 23 25 21 25 26 29 20 11 13 22 23 23 24 21 20 11 11 12 9 4 7 6 4 3 7 13 14 15
4 6 3 8 7 13 14 21 15 20 18 12 9 9 11 12 14 23 21 21 20 24 25 24 12 13 19 12 13 21 23 24 21 15 16 13 12 10 6 6 5 7 12 12 12
4 3 5 6 5 10 14 17 21 17 17 12 9 4 9 11 10 12 22 15 16 22 14 22 19 20 17 19 16 21 21 20 23 14 16 14 16 9 10 10 9 8 9 12 11
3 1 2 3 5 6 5 5 17 22 18 14 11 13 11 9 12 14 20 15 16 14 20 19 22 19 21 6 26 22 24 25 26 24 20 16 16 16 11 11 10 9 9 10 11
5 4 1 7 6 9 7 11 11 13 18 22 15 16 10 9 4 13 16 16 15 13 22 20 16 18 21 14 11 19 25 26 25 25 25 20 18 13 13 15 7 10 10 12 12
2 6 4 2 5 6 6 6 7 3 9 14 11 15 12 13 3 6 7 5 4 14 16 19 15 15 20 21 19 19 20 17 15 17 14 18 14 10 12 13 15 14 14 14 14
Wind_Direction
10 7 6 6 5 3 2 0 356 355 358 353 349 348 335 328 320 307 273 288 200 193 156 167 202 220 228 248 257 269 179 59 41 38 118 135 120 97 114 124 75 41 132 127 137
5 2 0 359 358 356 356 354 349 349 351 349 348 347 336 331 304 258 257 220 199 188 168 201 218 219 241 247 159 283 58 51 46 76 123 127 107 130 147 129 107 102 110 134 144
2 1 358 355 353 350 349 346 343 342 342 341 340 341 337 335 275 105 241 218 203 192 259 255 262 256 272 300 61 45 53 81 75 95 117 116 111 125 131 144 151 140 141 146 154
359 358 356 352 349 347 343 340 338 334 332 332 328 333 330 297 255 99 12 220 195 198 230 240 251 266 301 36 90 107 67 97 106 109 118 103 122 95 21 86 119 139 148 152 165
355 353 352 349 346 342 338 335 331 327 323 322 315 329 316 233 251 300 331 173 191 208 226 238 275 316 10 68 133 105 96 100 101 94 102 118 95 97 93 105 121 141 146 158 165
351 349 347 345 343 340 335 331 325 318 313 309 300 313 257 246 277 293 276 167 200 209 218 226 308 344 5 65 348 115 116 115 112 110 117 110 130 131 114 123 132 148 160 173 170
348 346 345 342 340 336 330 325 318 314 305 289 279 242 250 243 225 209 194 203 209 216 222 223 263 272 128 106 120 129 120 121 121 131 129 128 112 99 138 140 147 161 162 171 180
347 346 344 341 339 332 326 323 316 311 291 254 203 235 260 215 229 235 222 220 216 196 236 241 230 263 268 125 158 172 178 165 143 172 151 272 115 142 159 160 157 174 178 183 186
345 344 341 340 339 330 322 321 317 315 259 157 203 242 257 195 220 226 212 212 180 192 209 216 244 171 160 178 170 202 138 125 163 202 143 283 119 154 173 174 166 174 182 187 183
345 344 340 338 338 331 322 318 287 187 181 221 248 242 225 214 181 201 198 204 181 171 170 207 210 196 215 213 188 164 138 174 163 185 215 184 104 158 181 184 183 181 180 185 188
342 343 340 336 336 333 332 302 218 194 213 230 199 227 159 216 188 198 179 185 190 190 194 195 209 212 196 228 25 232 246 187 163 140 214 239 159 169 183 195 190 193 191 193 192
339 341 340 336 334 333 341 305 44 332 292 231 244 250 250 217 203 189 182 184 192 198 200 179 219 209 205 180 224 192 197 190 98 159 222 216 235 168 183 205 202 196 196 197 189
336 339 339 336 335 6 321 100 348 323 256 236 217 222 218 208 223 182 192 199 196 203 193 207 208 191 200 198 216 216 230 143 315 186 224 261 226 208 190 201 210 211 202 197 199
333 336 339 339 337 336 216 323 337 263 265 219 198 215 191 199 221 206 199 192 207 209 201 220 156 188 202 209 215 231 195 257 224 248 293 209 113 190 192 200 209 213 207 204 201
326 331 333 341 305 297 4 324 325 214 258 128 149 134 182 188 148 184 192 203 200 202 199 203 186 191 212 215 206 247 169 227 232 249 281 197 267 118 190 200 207 215 213 206 199
322 324 326 333 293 269 300 315 230 222 229 177 160 174 174 196 188 159 183 206 216 198 218 218 205 210 209 194 217 161 176 188 230 256 232 168 242 150 175 218 209 205 211 209 201
318 316 310 290 260 307 315 256 205 228 132 184 183 177 188 184 181 180 181 192 181 188 193 191 199 198 223 189 189 196 208 216 226 204 241 147 216 216 171 160 209 201 203 211 199
315 313 297 267 257 275 252 216 223 205 212 125 183 183 196 183 188 188 187 194 207 201 184 194 198 192 189 215 191 205 221 222 207 213 164 150 216 219 216 120 196 216 205 203 203
319 309 287 267 237 212 222 214 213 207 208 194 178 188 193 189 192 192 198 201 198 203 220 199 212 184 188 207 196 202 224 230 263 286 249 168 214 271 238 238 206 204 207 203 200
314 303 274 232 209 195 218 229 225 219 280 218 201 193 192 190 201 194 195 204 200 201 225 198 203 189 187 200 214 209 207 205 233 227 230 165 216 221 175 177 162 198 194 190 201
292 289 73 243 186 206 220 220 232 206 249 241 223 193 214 194 200 192 197 188 204 192 215 181 235 170 184 199 188 191 204 223 236 233 219 218 201 204 229 264 78 158 178 182 189
289 256 64 174 212 216 225 222 237 234 232 248 276 242 214 210 202 206 209 205 198 197 199 202 205 181 195 203 218 202 202 206 221 193 253 298 227 146 209 236 176 156 170 175 182
275 290 206 218 232 218 226 233 231 233 232 219 214 231 219 215 212 217 207 196 187 192 199 196 224 201 188 180 209 224 212 208 220 237 216 228 237 156 163 229 194 182 167 168 171
282 274 175 206 284 304 216 214 219 233 250 236 250 213 196 205 215 209 208 200 187 200 198 189 214 218 204 207 191 209 211 222 222 214 232 220 257 180 192 217 179 180 174 164 169
231 58 356 298 185 275 242 273 220 218 223 209 234 236 207 202 198 211 206 172 205 186 192 198 219 203 242 231 202 202 209 206 218 225 229 240 221 251 205 218 217 175 170 173 171
305 317 272 275 272 245 198 213 235 225 226 220 236 214 214 240 231 187 212 179 176 188 199 209 214 214 222 213 222 211 218 214 223 226 235 233 246 204 227 232 242 209 190 190 179
343 263 276 239 246 245 215 220 216 320 250 266 254 237 218 224 27 354 343 65 112 177 183 202 207 201 217 219 224 234 219 211 217 227 234 230 229 220 230 225 224 220 208 199 180